Presure
185 205 184 190 174 171 177 176 181 182 150 167 155 149 169 168 167 133 166 142 152 146 150 146 149 145 143 148 148 160 160 145 146 126 142 144 158 159 153 166 172 168 169
148 163 206 189 182 160 165 174 172 180 182 182 172 146 138 168 147 177 164 168 153 159 166 154 160 166 156 150 143 157 153 141 126 158 152 157 156 144 169 169 166 170 160
194 144 151 210 206 186 168 161 169 137 166 166 154 173 176 126 172 159 167 152 134 159 164 125 149 167 153 123 153 158 154 124 162 158 156 152 169 165 163 161 169 178 169
176 174 176 147 155 198 193 182 173 170 140 170 160 158 157 160 139 126 162 166 174 171 172 161 153 136 132 151 163 127 169 166 166 162 169 168 153 165 160 167 159 158 176
188 187 175 226 216 190 195 191 192 190 187 131 131 167 167 174 163 162 141 129 167 172 175 164 172 172 173 164 162 158 155 157 165 169 154 158 159 169 170 169 180 163 151
189 179 181 156 164 209 210 180 172 177 168 200 197 132 154 178 173 177 164 163 172 162 177 176 167 171 180 180 178 181 181 173 147 167 168 167 171 176 171 167 165 166 194
191 204 179 179 203 191 180 222 202 180 188 192 210 172 193 182 142 141 190 181 187 161 155 156 141 135 160 179 185 182 137 184 185 186 182 162 148 152 150 173 187 179 186
207 192 193 202 178 182 186 189 188 224 185 179 188 219 186 185 179 147 122 160 179 170 189 191 179 169 164 138 145 144 149 151 147 177 195 176 199 143 187 161 199 194 198
228 221 208 186 182 183 186 187 189 191 194 191 192 188 193 193 192 190 185 177 153 132 170 168 170 168 162 160 177 148 143 159 132 166 133 158 139 168 156 173 172 178 185
242 230 223 218 194 193 189 184 187 190 192 195 201 203 201 197 175 193 195 207 180 162 188 174 160 144 172 167 177 177 166 178 151 162 163 137 162 137 172 163 179 188 176
234 230 236 227 214 212 210 201 195 190 190 191 192 200 204 203 208 206 200 193 201 210 153 124 136 181 156 158 145 149 133 152 169 139 157 170 157 171 165 169 183 190 248
267 261 253 233 223 217 211 211 210 208 207 207 205 205 211 214 244 216 211 200 196 204 210 187 166 197 202 185 156 163 173 155 138 164 163 137 181 194 198 193 261 206 204
269 263 260 262 254 248 237 231 229 231 232 239 248 251 248 238 233 254 226 215 209 222 216 214 180 204 184 155 193 194 137 160 171 151 171 183 196 183 259 204 196 265 185
310 294 267 269 276 257 272 285 244 255 247 250 253 250 251 253 257 269 260 246 239 229 226 221 209 194 199 194 171 194 198 180 200 173 169 190 232 199 206 239 239 234 249
286 300 273 273 250 282 281 251 277 255 256 248 247 241 244 249 251 256 256 259 262 264 223 243 221 219 202 201 202 204 195 179 194 224 202 201 167 252 247 256 257 259 251
295 295 289 306 320 331 332 288 292 274 254 253 252 289 98 248 247 207 252 256 255 254 250 247 249 251 250 254 209 159 159 205 205 269 253 257 242 267 272 238 247 242 233
267 274 290 294 287 295 316 329 333 315 309 276 296 291 286 284 277 276 272 271 249 265 235 269 255 256 278 244 239 272 245 237 266 274 247 258 252 234 246 256 244 240 248
295 324 288 278 268 279 290 294 298 310 331 339 323 304 304 301 291 289 291 291 296 240 296 286 275 276 202 275 263 279 262 260 282 297 268 256 251 249 246 249 227 244 231
303 311 312 314 317 315 314 312 287 280 284 301 302 305 306 310 312 322 325 337 338 339 295 289 284 303 267 252 264 283 282 304 273 281 281 255 252 248 239 236 237 226 239
275 283 286 285 286 292 300 305 311 313 140 317 328 340 292 292 297 350 292 298 299 308 309 310 344 338 336 336 333 323 304 291 279 262 248 247 244 231 236 243 228 235 227
273 277 275 274 274 277 282 288 283 286 301 298 303 321 318 313 323 334 339 317 320 278 274 280 280 272 308 257 253 277 278 262 254 247 251 252 238 224 249 229 228 231 231
262 263 258 260 263 269 271 266 275 270 278 293 298 294 301 304 319 317 320 314 313 305 290 294 278 278 263 261 262 270 254 251 250 253 253 251 232 246 227 230 231 226 226
275 281 278 284 288 284 270 262 256 261 260 273 287 283 286 294 306 302 295 295 295 299 318 289 271 276 287 277 276 263 265 245 237 228 240 246 243 243 230 230 230 230 228
258 261 278 280 284 280 283 299 267 251 252 260 272 281 277 278 278 289 281 283 283 277 287 287 292 287 261 255 261 263 266 256 246 227 246 246 237 235 233 226 233 228 242
259 254 252 272 270 273 278 278 272 254 252 250 261 266 281 269 272 273 283 270 268 267 274 272 271 262 263 252 242 249 246 249 236 242 242 237 224 224 228 228 231 245 231
273 265 260 249 255 301 281 267 266 265 266 256 251 249 270 275 267 266 261 260 270 263 252 254 258 263 245 238 238 250 249 245 242 229 226 230 232 229 239 246 245 238 238
Wind_Speed
88 98 98 103 94 93 94 94 95 95 77 92 82 79 91 88 84 60 80 70 78 70 73 69 72 70 71 75 75 88 88 69 72 66 73 81 89 91 82 102 106 96 99
79 85 102 100 101 87 90 93 91 91 93 97 96 71 62 89 73 90 82 84 79 81 84 80 84 86 88 79 70 86 83 77 67 87 79 88 87 74 107 104 95 102 81
93 80 81 107 105 98 91 87 91 73 90 90 83 99 101 63 90 77 83 74 68 82 86 65 76 89 83 66 86 87 85 68 93 87 85 85 105 100 100 97 106 111 98
87 87 89 77 84 101 99 97 96 96 76 95 89 89 85 86 72 69 84 81 84 83 84 86 80 71 70 80 92 69 102 97 100 98 104 103 83 101 94 105 91 86 102
90 91 88 112 115 94 98 98 100 102 102 73 70 94 98 105 91 87 65 70 85 86 87 86 89 91 94 97 94 85 76 84 99 105 84 93 95 108 109 106 117 94 68
91 89 92 82 87 110 115 92 87 92 93 112 112 72 85 105 105 107 88 89 89 81 90 89 86 89 92 96 100 101 104 107 83 104 104 105 115 117 106 102 98 93 123
94 97 91 90 99 98 95 112 104 93 97 99 108 94 109 105 73 82 113 104 106 83 78 80 77 75 84 94 98 97 78 104 107 110 109 96 81 82 80 103 113 111 114
98 97 95 97 91 93 95 97 96 109 96 94 98 108 102 104 102 80 70 82 102 91 102 105 95 89 88 78 82 83 87 86 86 102 113 98 116 71 112 84 123 122 125
99 101 97 93 92 92 94 96 98 99 99 100 101 100 103 105 106 106 105 104 88 78 93 91 91 90 87 87 94 88 81 92 67 96 65 94 73 100 80 102 96 107 117
97 99 99 100 98 98 96 97 98 99 100 100 103 105 106 105 96 105 107 110 101 92 106 97 89 77 95 91 95 98 93 101 82 94 87 69 92 71 99 85 108 118 107
95 97 98 98 100 102 105 102 101 101 102 101 102 104 107 107 110 109 107 105 107 112 85 70 84 102 89 91 89 90 70 87 98 69 91 102 86 98 90 98 113 117 98
86 91 94 98 100 104 106 106 105 105 105 107 108 107 110 112 112 113 111 106 104 108 111 104 94 111 110 105 85 91 101 94 68 101 94 73 112 121 123 118 81 122 123
81 85 88 91 96 99 102 105 107 108 107 109 112 111 110 110 112 112 110 110 107 114 114 113 99 112 101 93 107 109 70 89 104 77 103 112 122 110 86 125 119 84 83
53 70 82 86 87 93 92 91 103 105 106 106 108 107 107 106 105 103 107 113 115 114 115 115 112 105 108 106 93 108 112 100 115 105 94 112 112 122 124 95 94 102 77
63 60 79 80 88 84 86 96 94 101 105 106 106 103 103 105 107 103 102 106 107 108 95 113 112 112 108 108 109 111 109 106 104 106 119 119 88 86 85 86 70 72 75
56 61 66 60 56 56 76 88 90 93 100 103 107 93 44 109 102 90 105 111 108 111 107 105 105 107 104 102 109 80 81 114 116 89 89 84 93 82 74 89 74 69 82
63 63 63 64 68 68 64 65 72 89 97 93 92 96 98 101 105 107 108 110 97 108 92 113 104 105 105 96 96 96 90 89 89 89 86 82 76 90 76 70 68 71 69
55 50 62 64 67 66 67 69 69 69 68 72 86 96 98 100 98 99 100 99 99 91 98 93 98 97 76 94 94 90 89 88 88 79 73 71 72 66 71 67 79 67 75
41 40 40 38 38 44 49 52 67 69 69 70 71 72 74 72 71 70 70 73 77 78 90 92 92 94 87 87 83 82 84 79 69 61 51 58 61 65 68 69 72 77 73
44 42 39 38 40 39 36 34 38 42 51 48 49 50 64 65 65 54 67 65 63 61 62 63 53 52 50 50 51 54 56 53 44 50 60 62 63 70 68 65 74 72 76
37 36 37 40 44 43 37 36 39 38 38 44 42 39 43 48 43 41 44 52 51 59 59 57 57 58 41 48 65 49 44 52 57 61 61 58 67 72 59 71 73 73 74
42 40 42 43 44 40 39 40 36 39 39 34 32 31 31 37 35 35 36 40 44 49 49 47 52 51 56 54 52 45 53 56 58 56 56 56 68 57 70 71 72 74 75
45 46 46 48 48 47 43 44 46 41 41 36 33 36 34 29 30 33 32 33 32 32 40 50 50 50 39 43 43 48 48 56 61 67 64 63 61 61 71 71 72 74 74
39 40 41 42 39 39 41 41 42 47 45 40 35 32 34 28 30 29 31 31 32 37 33 34 34 43 49 52 50 50 48 50 55 64 55 57 62 69 70 73 73 73 76
42 42 40 39 40 41 40 40 41 47 46 45 37 33 30 31 28 25 29 35 37 37 37 39 39 42 43 47 54 52 52 53 58 56 59 61 68 71 72 73 75 78 72
42 44 42 42 41 37 41 44 44 42 43 44 41 41 27 27 27 29 33 34 33 37 42 41 40 42 50 52 54 49 50 54 56 60 65 68 70 70 73 73 74 73 74
Wind_Direction
233 233 235 235 236 238 239 242 247 249 252 252 253 256 256 257 258 260 261 264 265 268 269 271 273 276 278 280 282 282 284 290 292 290 292 294 297 300 300 302 302 305 306
233 236 237 235 236 244 243 242 245 247 250 254 257 255 251 260 259 262 260 261 264 265 266 271 272 271 275 278 282 280 285 286 290 290 294 295 298 295 298 299 302 304 308
236 238 238 238 238 238 244 248 246 250 248 250 256 259 261 254 263 261 261 264 267 265 266 273 271 271 277 281 279 282 285 289 287 292 294 293 295 296 297 300 302 302 304
236 238 239 243 241 241 242 243 244 246 252 249 253 258 263 265 260 260 265 265 265 265 267 268 273 274 275 281 280 283 281 285 287 291 291 293 293 295 298 299 303 306 305
237 239 240 237 238 243 245 247 248 249 250 255 259 255 258 262 264 264 258 263 266 267 266 267 269 271 272 275 280 285 288 289 287 287 289 292 294 294 296 299 299 305 304
236 239 241 242 243 242 243 246 248 248 253 252 252 259 258 258 262 266 266 268 267 268 270 269 270 272 274 275 276 279 280 281 286 286 289 291 291 293 297 299 302 303 303
238 238 239 242 240 243 247 244 247 250 250 250 251 254 253 256 261 266 264 266 267 268 269 270 272 274 275 277 278 280 284 281 283 285 288 292 298 301 295 300 298 302 303
240 241 242 241 244 247 248 249 250 247 251 252 253 252 254 255 257 260 264 268 267 268 270 273 273 274 275 281 280 282 284 287 288 286 287 292 291 294 295 301 298 298 301
238 241 243 244 244 247 250 251 253 253 253 254 254 254 254 255 257 259 261 264 264 266 270 271 272 274 275 277 278 280 286 282 289 285 294 292 293 293 299 297 303 304 304
237 240 242 244 247 248 247 249 251 253 254 255 255 255 255 257 260 259 260 259 263 264 267 270 271 278 275 275 278 279 279 282 289 290 290 295 293 294 297 301 302 301 302
238 240 242 242 246 248 250 249 249 251 254 255 257 257 257 258 257 258 260 261 262 261 267 277 273 272 272 273 280 280 286 282 283 290 289 289 293 296 301 297 300 299 302
239 240 241 242 243 245 248 250 251 252 254 255 256 257 257 256 254 257 258 261 264 264 263 266 271 268 269 272 279 278 278 284 289 285 288 290 290 289 291 296 304 298 299
240 240 241 241 241 241 244 247 250 251 251 252 253 254 253 253 255 255 260 261 260 260 262 263 268 266 271 276 274 276 285 281 280 292 288 287 287 291 298 294 297 304 297
241 240 240 241 243 243 242 242 244 246 249 251 253 255 257 258 259 260 258 256 258 260 260 262 265 268 269 272 274 275 277 281 279 284 286 286 286 290 291 296 293 294 298
241 241 242 242 244 243 244 245 245 246 248 251 255 258 259 259 260 261 261 262 262 263 266 263 264 265 269 271 272 274 276 278 280 281 281 285 292 291 289 295 295 294 296
243 243 243 244 245 243 245 246 247 246 248 250 252 253 275 261 262 263 264 266 267 268 266 265 267 270 269 271 272 281 284 274 276 285 284 287 284 292 290 290 292 294 294
251 251 249 248 249 249 251 249 250 250 251 253 253 253 254 255 256 258 260 263 266 267 269 270 271 272 271 274 275 276 282 283 283 286 284 284 289 284 287 285 290 292 294
249 253 250 253 253 253 254 255 256 257 257 258 257 257 258 259 259 259 259 261 263 269 264 263 264 267 268 272 272 272 274 277 282 283 281 282 281 283 284 285 289 289 292
254 254 253 253 254 254 254 254 256 257 258 259 260 260 261 261 261 262 262 264 265 266 264 265 267 270 266 268 271 273 274 274 275 279 273 279 277 281 283 286 286 289 293
254 253 250 250 253 255 258 262 263 261 265 264 264 262 262 263 262 264 260 261 262 265 265 267 265 264 263 265 264 266 268 269 268 270 276 276 278 282 281 283 285 289 291
251 247 247 249 251 254 257 256 258 262 262 261 265 267 259 260 264 260 260 260 259 262 263 264 265 266 261 268 266 264 260 266 269 272 273 270 277 281 278 281 284 287 292
254 252 249 250 253 252 251 253 254 257 264 263 265 265 269 264 262 256 256 257 254 252 256 252 259 259 263 265 264 261 266 267 266 269 274 272 279 274 278 283 282 287 292
259 259 260 261 260 257 250 248 250 253 257 263 263 259 260 258 263 250 250 251 252 255 248 252 256 256 253 257 257 259 260 267 270 276 272 272 275 275 279 280 284 287 293
257 259 260 258 257 256 257 251 244 253 256 259 262 260 255 262 258 255 247 247 244 248 248 248 251 243 252 256 254 258 260 261 265 273 271 269 270 274 277 283 286 293 292
254 256 260 260 261 258 254 245 244 247 252 257 258 260 260 254 247 251 249 248 252 250 250 250 248 246 247 254 261 259 263 265 268 267 267 269 277 280 281 286 292 291 294
252 255 258 257 260 247 244 243 243 244 249 252 254 258 259 254 253 253 253 255 254 253 253 252 250 251 256 260 261 263 263 263 265 270 272 273 276 283 285 285 286 290 293